Date,TemperatureHighF,TemperatureAvgF,TemperatureLowF,DewpointHighF,DewpointAvgF,DewpointLowF,HumidityHigh,HumidityAvg,HumidityLow,PressureMaxIn,PressureMinIn,WindSpeedMaxMPH,WindSpeedAvgMPH,GustSpeedMaxMPH,PrecipitationSumIn
2013-1-1,31,9,1,-100,-100,-100,0,0,100,0.00,40.00,0,-999,0,0.01
2013-1-2,29,11,2,-100,-100,-100,0,0,100,0.00,40.00,0,-999,0,0.00
2013-1-3,31,13,2,-100,-100,-100,0,0,100,0.00,40.00,0,-999,0,0.00
2013-1-4,35,17,7,-100,-100,-100,0,0,100,0.00,40.00,0,-999,0,0.02
2013-1-5,41,26,16,-100,-100,-100,0,0,100,0.00,40.00,0,-999,0,0.02
2013-1-6,43,27,18,-100,-100,-100,0,0,100,0.00,40.00,0,-999,0,0.00
2013-1-7,49,29,18,-100,-100,-100,0,0,100,0.00,40.00,0,-999,0,0.00
2013-1-8,49,32,20,-100,-100,-100,0,0,100,0.00,40.00,0,-999,0,0.01
2013-1-9,49,31,24,-100,-100,-100,0,0,100,0.00,40.00,0,-999,0,0.00
2013-1-10,40,28,21,-100,-100,-100,0,0,100,0.00,40.00,0,-999,0,0.03
2013-1-11,26,16,2,-100,-100,-100,0,0,100,0.00,40.00,0,-999,0,0.02
2013-1-12,15,-1,-11,-100,-100,-100,0,0,100,0.00,40.00,0,-999,0,0.01
2013-1-13,18,3,-11,-100,-100,-100,0,0,100,0.00,40.00,0,-999,0,0.03
2013-1-14,19,7,-5,-100,-100,-100,0,0,100,0.00,40.00,0,-999,0,0.03
2013-1-15,32,10,-8,-100,-100,-100,0,0,100,0.00,40.00,0,-999,0,0.01
2013-1-16,39,24,14,-100,-100,-100,0,0,100,0.00,40.00,0,-999,0,0.01
2013-1-17,44,26,19,-100,-100,-100,0,0,100,0.00,40.00,0,-999,0,0.02
2013-1-18,47,26,16,-100,-100,-100,0,0,100,0.00,40.00,0,-999,0,0.02
2013-1-19,53,30,19,-100,-100,-100,0,0,100,0.00,40.00,0,-999,0,0.00
2013-1-20,51,29,17,-100,-100,-100,0,0,100,0.00,40.00,0,-999,0,0.02
2013-1-21,53,34,22,-100,-100,-100,0,0,100,0.00,40.00,0,-999,0,0.00
2013-1-22,56,37,27,-100,-100,-100,0,0,100,0.00,40.00,0,-999,0,0.02
2013-1-23,52,36,24,-100,-100,-100,0,0,100,0.00,40.00,0,-999,0,0.02
2013-1-24,47,38,29,-100,-100,-100,0,0,100,0.00,40.00,0,-999,0,0.02
2013-1-25,40,36,34,-100,-100,-100,0,0,100,0.00,40.00,0,-999,0,0.01
2013-1-26,36,35,33,-100,-100,-100,0,0,100,0.00,40.00,0,-999,0,0.06
2013-1-27,38,35,33,-100,-100,-100,0,0,100,0.00,40.00,0,-999,0,0.03
2013-1-28,33,28,21,-100,-100,-100,0,0,100,0.00,40.00,0,-999,0,0.06
2013-1-29,26,17,8,-100,-100,-100,0,0,100,0.00,40.00,0,-999,0,0.00
2013-1-30,33,21,9,-100,-100,-100,0,0,100,0.00,40.00,0,-999,0,0.00
2013-1-31,47,31,18,-100,-100,-100,0,0,100,0.00,40.00,0,-999,0,0.00
2013-2-1,46,26,15,-100,-100,-100,0,0,100,0.00,40.00,0,-999,0,0.03
2013-2-2,51,29,18,-100,-100,-100,0,0,100,0.00,40.00,0,-999,0,0.00
2013-2-3,38,30,22,-100,-100,-100,0,0,100,0.00,40.00,0,-999,0,0.00
2013-2-4,51,31,18,-100,-100,-100,0,0,100,0.00,40.00,0,-999,0,0.00
2013-2-5,51,32,21,-100,-100,-100,0,0,100,0.00,40.00,0,-999,0,0.03
2013-2-6,46,32,23,-100,-100,-100,0,0,100,0.00,40.00,0,-999,0,0.00
2013-2-7,44,28,17,-100,-100,-100,0,0,100,0.00,40.00,0,-999,0,0.00
2013-2-8,37,31,20,-100,-100,-100,0,0,100,0.00,40.00,0,-999,0,0.01
2013-2-9,30,23,13,-100,-100,-100,0,0,100,0.00,40.00,0,-999,0,0.02
2013-2-10,25,19,14,-100,-100,-100,0,0,100,0.00,40.00,0,-999,0,0.05
2013-2-11,22,18,10,-100,-100,-100,0,0,100,0.00,40.00,0,-999,0,0.06
2013-2-12,39,20,4,-100,-100,-100,0,0,100,0.00,40.00,0,-999,0,0.04
2013-2-13,44,25,8,-100,-100,-100,0,0,100,0.00,40.00,0,-999,0,0.04
2013-2-14,39,25,13,-100,-100,-100,0,0,100,0.00,40.00,0,-999,0,0.00
2013-2-15,38,25,12,-100,-100,-100,0,0,100,0.00,40.00,0,-999,0,0.00
2013-2-16,50,31,17,-100,-100,-100,0,0,100,0.00,40.00,0,-999,0,0.04
2013-2-17,42,29,18,-100,-100,-100,0,0,100,0.00,40.00,0,-999,0,0.00
2013-2-18,41,25,14,-100,-100,-100,0,0,100,0.00,40.00,0,-999,0,0.00
2013-2-19,41,24,9,-100,-100,-100,0,0,100,0.00,40.00,0,-999,0,0.00
2013-2-20,31,26,22,-100,-100,-100,0,0,100,0.00,40.00,0,-999,0,0.00
2013-2-21,38,23,15,-100,-100,-100,0,0,100,0.00,40.00,0,-999,0,0.04
2013-2-22,29,16,7,-100,-100,-100,0,0,100,0.00,40.00,0,-999,0,0.04
2013-2-23,26,14,3,-100,-100,-100,0,0,100,0.00,40.00,0,-999,0,0.00
2013-2-26,32,20,13,-100,-100,-100,0,0,100,0.00,40.00,0,-999,0,0.00
2013-2-27,35,19,3,-100,-100,-100,0,0,100,0.00,40.00,0,-999,0,0.04
2013-2-28,43,26,9,-100,-100,-100,0,0,100,0.00,40.00,0,-999,0,0.00
2013-3-1,49,37,27,-100,-100,-100,0,0,100,0.00,40.00,0,-999,0,0.04
2013-3-2,56,39,26,-100,-100,-100,0,0,100,0.00,40.00,0,-999,0,0.04
2013-3-3,45,36,29,-100,-100,-100,0,0,100,0.00,40.00,0,-999,0,0.00
2013-3-4,43,34,22,-100,-100,-100,0,0,100,0.00,40.00,0,-999,0,0.01
2013-3-5,50,32,15,-100,-100,-100,0,0,100,0.00,40.00,0,-999,0,0.01
2013-3-6,49,36,25,-100,-100,-100,0,0,100,0.00,40.00,0,-999,0,0.00
2013-3-7,52,38,26,-100,-100,-100,0,0,100,0.00,40.00,0,-999,0,0.00
2013-3-8,42,33,29,-100,-100,-100,0,0,100,0.00,40.00,0,-999,0,0.01
2013-3-9,36,27,21,-100,-100,-100,0,0,100,0.00,40.00,0,-999,0,0.02
2013-3-10,46,29,15,-100,-100,-100,0,0,100,0.00,40.00,0,-999,0,0.05
2013-3-11,51,32,19,-100,-100,-100,0,0,100,0.00,40.00,0,-999,0,0.05
2013-3-12,53,38,25,-100,-100,-100,0,0,100,0.00,40.00,0,-999,0,0.05
2013-3-13,56,40,27,-100,-100,-100,0,0,100,0.00,40.00,0,-999,0,0.04
2013-3-14,64,43,31,-100,-100,-100,0,0,100,0.00,40.00,0,-999,0,0.05
2013-3-15,58,44,32,-100,-100,-100,0,0,100,0.00,40.00,0,-999,0,0.04
2013-3-16,53,39,31,-100,-100,-100,0,0,100,0.00,40.00,0,-999,0,0.04
2013-3-17,50,37,28,-100,-100,-100,0,0,100,0.00,40.00,0,-999,0,0.05
2013-3-18,45,36,27,-100,-100,-100,0,0,100,0.00,40.00,0,-999,0,0.04
2013-3-19,48,38,28,-100,-100,-100,0,0,100,0.00,40.00,0,-999,0,0.05
2013-3-20,44,33,23,-100,-100,-100,0,0,100,0.00,40.00,0,-999,0,0.04
2013-3-21,45,37,25,-100,-100,-100,0,0,100,0.00,40.00,0,-999,0,0.06
2013-3-22,44,34,21,-100,-100,-100,0,0,100,0.00,40.00,0,-999,0,0.05
2013-3-23,26,20,11,-100,-100,-100,0,0,100,0.00,40.00,0,-999,0,0.00
2013-3-24,36,18,3,-100,-100,-100,0,0,100,0.00,40.00,0,-999,0,0.01
2013-3-25,43,25,6,-100,-100,-100,0,0,100,0.00,40.00,0,-999,0,0.04
2013-3-26,48,35,23,-100,-100,-100,0,0,100,0.00,40.00,0,-999,0,0.04
2013-3-27,53,41,31,-100,-100,-100,0,0,100,0.00,40.00,0,-999,0,0.04
2013-3-28,55,42,32,-100,-100,-100,0,0,100,0.00,40.00,0,-999,0,0.04
2013-3-29,54,42,33,-100,-100,-100,0,0,100,0.00,40.00,0,-999,0,0.00
2013-3-30,54,42,31,-100,-100,-100,0,0,100,0.00,40.00,0,-999,0,0.04
2013-3-31,58,43,31,-100,-100,-100,0,0,100,0.00,40.00,0,-999,0,0.04
2013-4-1,54,44,32,-100,-100,-100,0,0,100,0.00,40.00,0,-999,0,0.04
2013-4-2,46,36,28,-100,-100,-100,0,0,100,0.00,40.00,0,-999,0,0.04
2013-4-3,54,39,27,-100,-100,-100,0,0,100,0.00,40.00,0,-999,0,0.01
2013-4-4,57,43,29,-100,-100,-100,0,0,100,0.00,40.00,0,-999,0,0.02
2013-4-5,53,42,35,-100,-100,-100,0,0,100,0.00,40.00,0,-999,0,0.01
2013-4-6,57,44,31,-100,-100,-100,0,0,100,0.00,40.00,0,-999,0,0.01
2013-4-7,54,42,32,-100,-100,-100,0,0,100,0.00,40.00,0,-999,0,0.03
2013-4-8,46,37,32,-100,-100,-100,0,0,100,0.00,40.00,0,-999,0,0.02
2013-4-9,36,30,23,-100,-100,-100,0,0,100,0.00,40.00,0,-999,0,0.06
2013-4-10,38,29,20,-100,-100,-100,0,0,100,0.00,40.00,0,-999,0,0.01
2013-4-11,47,34,21,-100,-100,-100,0,0,100,0.00,40.00,0,-999,0,0.05
2013-4-12,52,37,25,-100,-100,-100,0,0,100,0.00,40.00,0,-999,0,0.01
2013-4-13,54,42,28,-100,-100,-100,0,0,100,0.00,40.00,0,-999,0,0.01
2013-4-14,52,41,33,-100,-100,-100,0,0,100,0.00,40.00,0,-999,0,0.04
2013-4-15,54,45,38,-100,-100,-100,0,0,100,0.00,40.00,0,-999,0,0.00
2013-4-16,57,44,36,-100,-100,-100,0,0,100,0.00,40.00,0,-999,0,0.01
2013-4-17,41,33,22,-100,-100,-100,0,0,100,0.00,40.00,0,-999,0,0.00
2013-4-18,35,25,16,-100,-100,-100,0,0,100,0.00,40.00,0,-999,0,0.06
2013-4-19,50,32,18,-100,-100,-100,0,0,100,0.00,40.00,0,-999,0,0.02
2013-4-20,49,37,29,-100,-100,-100,0,0,100,0.00,40.00,0,-999,0,0.01
2013-4-21,55,40,26,-100,-100,-100,0,0,100,0.00,40.00,0,-999,0,0.01
2013-4-22,58,47,39,-100,-100,-100,0,0,100,0.00,40.00,0,-999,0,0.01
2013-4-23,47,40,34,-100,-100,-100,0,0,100,0.00,40.00,0,-999,0,0.00
2013-4-24,53,45,34,-100,-100,-100,0,0,100,0.00,40.00,0,-999,0,0.00
2013-4-25,56,44,32,-100,-100,-100,0,0,100,0.00,40.00,0,-999,0,0.02
2013-4-26,56,43,31,-100,-100,-100,0,0,100,0.00,40.00,0,-999,0,0.03
2013-4-27,61,44,31,-100,-100,-100,0,0,100,0.00,40.00,0,-999,0,0.01
2013-4-28,65,48,33,-100,-100,-100,0,0,100,0.00,40.00,0,-999,0,0.02
2013-4-29,68,53,37,-100,-100,-100,0,0,100,0.00,40.00,0,-999,0,0.01
2013-4-30,65,53,40,-100,-100,-100,0,0,100,0.00,40.00,0,-999,0,0.04
2013-5-1,56,45,33,-100,-100,-100,0,0,100,0.00,40.00,0,-999,0,0.00
2013-5-2,54,40,26,-100,-100,-100,0,0,100,0.00,40.00,0,-999,0,0.02
2013-5-3,60,45,28,-100,-100,-100,0,0,100,0.00,40.00,0,-999,0,0.02
2013-5-4,57,44,31,-100,-100,-100,0,0,100,0.00,40.00,0,-999,0,0.02
2013-5-5,55,46,36,-100,-100,-100,0,0,100,0.00,40.00,0,-999,0,0.02
2013-5-6,43,39,36,-100,-100,-100,0,0,100,0.00,40.00,0,-999,0,0.03
2013-5-7,52,42,35,-100,-100,-100,0,0,100,0.00,40.00,0,-999,0,0.01
2013-5-8,48,38,32,-100,-100,-100,0,0,100,0.00,40.00,0,-999,0,0.05
2013-5-9,46,38,33,-100,-100,-100,0,0,100,0.00,40.00,0,-999,0,0.06
2013-5-10,55,42,31,-100,-100,-100,0,0,100,0.00,40.00,0,-999,0,0.01
2013-5-11,61,44,32,-100,-100,-100,0,0,100,0.00,40.00,0,-999,0,0.01
2013-5-12,66,49,36,-100,-100,-100,0,0,100,0.00,40.00,0,-999,0,0.04
2013-5-13,67,52,39,-100,-100,-100,0,0,100,0.00,40.00,0,-999,0,0.01
2013-5-14,65,52,40,-100,-100,-100,0,0,100,0.00,40.00,0,-999,0,0.03
2013-5-15,66,53,42,-100,-100,-100,0,0,100,0.00,40.00,0,-999,0,0.03
2013-5-16,67,54,38,-100,-100,-100,0,0,100,0.00,40.00,0,-999,0,0.04
2013-5-17,67,52,39,-100,-100,-100,0,0,100,0.00,40.00,0,-999,0,0.04
2013-5-18,57,48,38,-100,-100,-100,0,0,100,0.00,40.00,0,-999,0,0.02
2013-5-19,50,40,33,-100,-100,-100,0,0,100,0.00,40.00,0,-999,0,0.05
2013-5-20,58,42,32,-100,-100,-100,0,0,100,0.00,40.00,0,-999,0,0.05
2013-5-21,63,51,34,-100,-100,-100,0,0,100,0.00,40.00,0,-999,0,0.05
2013-5-22,65,51,36,-100,-100,-100,0,0,100,0.00,40.00,0,-999,0,0.04
2013-5-23,71,55,39,-100,-100,-100,0,0,100,0.00,40.00,0,-999,0,0.01
2013-5-24,69,54,40,-100,-100,-100,0,0,100,0.00,40.00,0,-999,0,0.03
2013-5-25,70,54,37,-100,-100,-100,0,0,100,0.00,40.00,0,-999,0,0.03
2013-5-26,67,53,40,-100,-100,-100,0,0,100,0.00,40.00,0,-999,0,0.02
2013-5-27,67,52,38,-100,-100,-100,0,0,100,0.00,40.00,0,-999,0,0.03
2013-5-28,62,50,37,-100,-100,-100,0,0,100,0.00,40.00,0,-999,0,0.02
2013-5-29,58,46,35,-100,-100,-100,0,0,100,0.00,40.00,0,-999,0,0.04
2013-5-30,61,48,34,-100,-100,-100,0,0,100,0.00,40.00,0,-999,0,0.05
2013-5-31,63,52,38,-100,-100,-100,0,0,100,0.00,40.00,0,-999,0,0.03
2013-6-1,70,54,39,-100,-100,-100,0,0,100,0.00,40.00,0,-999,0,0.01
2013-6-2,70,56,39,-100,-100,-100,0,0,100,0.00,40.00,0,-999,0,0.04
2013-6-3,67,56,44,-100,-100,-100,0,0,100,0.00,40.00,0,-999,0,0.04
2013-6-4,72,60,45,-100,-100,-100,0,0,100,0.00,40.00,0,-999,0,0.04
2013-6-5,74,59,44,-100,-100,-100,0,0,100,0.00,40.00,0,-999,0,0.03
2013-6-6,75,60,42,-100,-100,-100,0,0,100,0.00,40.00,0,-999,0,0.03
2013-6-7,75,56,42,-100,-100,-100,0,0,100,0.00,40.00,0,-999,0,0.00
2013-6-8,78,60,44,-100,-100,-100,0,0,100,0.00,40.00,0,-999,0,0.04
2013-6-9,83,64,48,-100,-100,-100,0,0,100,0.00,40.00,0,-999,0,0.01
2013-6-10,79,64,48,-100,-100,-100,0,0,100,0.00,40.00,0,-999,0,0.03
2013-6-11,76,62,47,-100,-100,-100,0,0,100,0.00,40.00,0,-999,0,0.02
2013-6-12,77,62,47,-100,-100,-100,0,0,100,0.00,40.00,0,-999,0,0.02
2013-6-13,76,64,48,-100,-100,-100,0,0,100,0.00,40.00,0,-999,0,0.03
2013-6-14,76,60,45,-100,-100,-100,0,0,100,0.00,40.00,0,-999,0,0.03
2013-6-15,72,56,43,-100,-100,-100,0,0,100,0.00,40.00,0,-999,0,0.00
2013-6-16,74,58,43,-100,-100,-100,0,0,100,0.00,40.00,0,-999,0,0.04
2013-6-17,72,58,45,-100,-100,-100,0,0,100,0.00,40.00,0,-999,0,0.03
2013-6-18,72,58,43,-100,-100,-100,0,0,100,0.00,40.00,0,-999,0,0.04
2013-6-19,76,59,44,-100,-100,-100,0,0,100,0.00,40.00,0,-999,0,0.03
2013-6-20,74,54,42,-100,-100,-100,0,0,100,0.00,40.00,0,-999,0,0.04
2013-6-22,73,65,49,-100,-100,-100,0,0,100,0.00,40.00,0,-999,0,0.03
2013-6-23,74,61,43,-100,-100,-100,0,0,100,0.00,40.00,0,-999,0,0.04
2013-6-24,71,62,45,-100,-100,-100,0,0,100,0.00,40.00,0,-999,0,0.02
2013-6-25,73,59,44,-100,-100,-100,0,0,100,0.00,40.00,0,-999,0,0.04
2013-6-26,85,65,46,-100,-100,-100,0,0,100,0.00,40.00,0,-999,0,0.01
2013-6-27,84,66,53,-100,-100,-100,0,0,100,0.00,40.00,0,-999,0,0.02
2013-6-28,81,65,53,-100,-100,-100,0,0,100,0.00,40.00,0,-999,0,0.04
2013-6-29,76,59,50,-100,-100,-100,0,0,100,0.00,40.00,0,-999,0,0.05
2013-6-30,77,62,49,-100,-100,-100,0,0,100,0.00,40.00,0,-999,0,0.01
2013-7-1,80,62,47,-100,-100,-100,0,0,100,0.00,40.00,0,-999,0,0.05
2013-7-2,78,61,47,-100,-100,-100,0,0,100,0.00,40.00,0,-999,0,0.05
2013-7-3,80,65,46,-100,-100,-100,0,0,100,0.00,40.00,0,-999,0,0.01
2013-7-4,77,66,56,-100,-100,-100,0,0,100,0.00,40.00,0,-999,0,0.06
2013-7-5,74,64,54,-100,-100,-100,0,0,100,0.00,40.00,0,-999,0,0.05
2013-7-6,79,62,51,-100,-100,-100,0,0,100,0.00,40.00,0,-999,0,0.01
2013-7-7,78,63,51,-100,-100,-100,0,0,100,0.00,40.00,0,-999,0,0.05
2013-7-8,80,63,52,-100,-100,-100,0,0,100,0.00,40.00,0,-999,0,0.04
2013-7-9,80,65,51,-100,-100,-100,0,0,100,0.00,40.00,0,-999,0,0.05
2013-7-10,80,64,55,-100,-100,-100,0,0,100,0.00,40.00,0,-999,0,0.06
2013-7-11,80,62,51,-100,-100,-100,0,0,100,0.00,40.00,0,-999,0,0.01
2013-7-12,72,56,50,-100,-100,-100,0,0,100,0.00,40.00,0,-999,0,0.05
2013-7-13,65,56,49,-100,-100,-100,0,0,100,0.00,40.00,0,-999,0,0.01
2013-7-14,68,58,50,-100,-100,-100,0,0,100,0.00,40.00,0,-999,0,0.18
2013-7-15,72,58,51,-100,-100,-100,0,0,100,0.00,40.00,0,-999,0,0.01
2013-7-16,57,54,50,-100,-100,-100,0,0,100,0.00,40.00,0,-999,0,0.66
2013-7-17,71,57,51,-100,-100,-100,0,0,100,0.00,40.00,0,-999,0,0.03
2013-7-18,73,58,50,-100,-100,-100,0,0,100,0.00,40.00,0,-999,0,0.04
2013-7-19,71,58,49,-100,-100,-100,0,0,100,0.00,40.00,0,-999,0,0.01
2013-7-20,79,60,48,-100,-100,-100,0,0,100,0.00,40.00,0,-999,0,0.01
2013-7-21,72,59,50,-100,-100,-100,0,0,100,0.00,40.00,0,-999,0,0.04
2013-7-22,77,60,48,-100,-100,-100,0,0,100,0.00,40.00,0,-999,0,0.04
2013-7-23,80,61,50,-100,-100,-100,0,0,100,0.00,40.00,0,-999,0,0.04
2013-7-24,77,62,54,-100,-100,-100,0,0,100,0.00,40.00,0,-999,0,0.03
2013-7-25,76,62,49,-100,-100,-100,0,0,100,0.00,40.00,0,-999,0,0.04
2013-7-26,72,61,51,-100,-100,-100,0,0,100,0.00,40.00,0,-999,0,0.04
2013-7-27,73,56,50,-100,-100,-100,0,0,100,0.00,40.00,0,-999,0,0.02
2013-7-28,61,54,50,-100,-100,-100,0,0,100,0.00,40.00,0,-999,0,0.06
2013-7-29,68,55,49,-100,-100,-100,0,0,100,0.00,40.00,0,-999,0,0.01
2013-7-30,71,59,46,-100,-100,-100,0,0,100,0.00,40.00,0,-999,0,0.04
2013-7-31,76,62,48,-100,-100,-100,0,0,100,0.00,40.00,0,-999,0,0.05
2013-8-1,62,56,52,-100,-100,-100,0,0,100,0.00,40.00,0,-999,0,0.02
2013-8-2,72,61,47,-100,-100,-100,0,0,100,0.00,40.00,0,-999,0,0.02
2013-8-3,71,58,51,-100,-100,-100,0,0,100,0.00,40.00,0,-999,0,0.01
2013-8-4,71,58,46,-100,-100,-100,0,0,100,0.00,40.00,0,-999,0,0.03
2013-8-5,70,59,50,-100,-100,-100,0,0,100,0.00,40.00,0,-999,0,0.03
2013-8-6,67,55,47,-100,-100,-100,0,0,100,0.00,40.00,0,-999,0,0.01
2013-8-7,58,52,49,-100,-100,-100,0,0,100,0.00,40.00,0,-999,0,0.02
2013-8-8,62,51,45,-100,-100,-100,0,0,100,0.00,40.00,0,-999,0,0.04
2013-8-9,66,52,42,-100,-100,-100,0,0,100,0.00,40.00,0,-999,0,0.04
2013-8-10,68,50,43,-100,-100,-100,0,0,100,0.00,40.00,0,-999,0,0.02
2013-8-11,67,51,41,-100,-100,-100,0,0,100,0.00,40.00,0,-999,0,0.04
2013-8-12,67,55,45,-100,-100,-100,0,0,100,0.00,40.00,0,-999,0,0.01
2013-8-13,72,56,43,-100,-100,-100,0,0,100,0.00,40.00,0,-999,0,0.04
2013-8-14,71,55,45,-100,-100,-100,0,0,100,0.00,40.00,0,-999,0,0.04
2013-8-15,77,59,46,-100,-100,-100,0,0,100,0.00,40.00,0,-999,0,0.04
2013-8-16,74,61,47,-100,-100,-100,0,0,100,0.00,40.00,0,-999,0,0.05
2013-8-17,76,61,51,-100,-100,-100,0,0,100,0.00,40.00,0,-999,0,0.00
2013-8-18,71,62,49,-100,-100,-100,0,0,100,0.00,40.00,0,-999,0,0.00
2013-8-19,72,58,49,-100,-100,-100,0,0,100,0.00,40.00,0,-999,0,0.04
2013-8-20,75,60,51,-100,-100,-100,0,0,100,0.00,40.00,0,-999,0,0.04
2013-8-21,71,58,49,-100,-100,-100,0,0,100,0.00,40.00,0,-999,0,0.05
2013-8-22,76,62,49,-100,-100,-100,0,0,100,0.00,40.00,0,-999,0,0.00
2013-8-23,72,60,49,-100,-100,-100,0,0,100,0.00,40.00,0,-999,0,0.05
2013-8-24,63,56,51,-100,-100,-100,0,0,100,0.00,40.00,0,-999,0,0.01
2013-8-25,57,54,50,-100,-100,-100,0,0,100,0.00,40.00,0,-999,0,0.02
2013-8-26,67,57,52,-100,-100,-100,0,0,100,0.00,40.00,0,-999,0,0.03
2013-8-27,71,60,51,-100,-100,-100,0,0,100,0.00,40.00,0,-999,0,0.05
2013-8-28,77,69,56,-100,-100,-100,0,0,100,0.00,40.00,0,-999,0,0.00
2013-8-29,73,60,51,-100,-100,-100,0,0,100,0.00,40.00,0,-999,0,0.05
2013-8-30,75,64,54,-100,-100,-100,0,0,100,0.00,40.00,0,-999,0,0.04
2013-8-31,76,59,51,-100,-100,-100,0,0,100,0.00,40.00,0,-999,0,0.00
2013-9-1,73,61,49,-100,-100,-100,0,0,100,0.00,40.00,0,-999,0,0.00
2013-9-2,73,60,51,-100,-100,-100,0,0,100,0.00,40.00,0,-999,0,0.00
2013-9-3,74,58,50,-100,-100,-100,0,0,100,0.00,40.00,0,-999,0,0.01
2013-9-4,78,66,54,-100,-100,-100,0,0,100,0.00,40.00,0,-999,0,0.04
2013-9-5,77,65,53,-100,-100,-100,0,0,100,0.00,40.00,0,-999,0,0.04
2013-9-6,76,62,48,-100,-100,-100,0,0,100,0.00,40.00,0,-999,0,0.04
2013-9-7,76,65,52,-100,-100,-100,0,0,100,0.00,40.00,0,-999,0,0.00
2013-9-8,72,61,50,-100,-100,-100,0,0,100,0.00,40.00,0,-999,0,0.04
2013-9-9,65,56,51,-100,-100,-100,0,0,100,0.00,40.00,0,-999,0,0.04
2013-9-10,53,52,50,-100,-100,-100,0,0,100,0.00,40.00,0,-999,0,0.00
2013-9-11,65,56,48,-100,-100,-100,0,0,100,0.00,40.00,0,-999,0,0.04
2013-9-12,65,52,44,-100,-100,-100,0,0,100,0.00,40.00,0,-999,0,0.05
2013-9-13,63,53,45,-100,-100,-100,0,0,100,0.00,40.00,0,-999,0,0.02
2013-9-14,59,50,45,-100,-100,-100,0,0,100,0.00,40.00,0,-999,0,0.04
2013-9-15,62,48,44,-100,-100,-100,0,0,100,0.00,40.00,0,-999,0,0.07
2013-9-16,63,50,45,-100,-100,-100,0,0,100,0.00,40.00,0,-999,0,0.06
2013-9-17,66,54,48,-100,-100,-100,0,0,100,0.00,40.00,0,-999,0,0.06
2013-9-18,51,50,47,-100,-100,-100,0,0,100,0.00,40.00,0,-999,0,0.02
2013-9-19,66,52,43,-100,-100,-100,0,0,100,0.00,40.00,0,-999,0,0.01
2013-9-20,68,54,40,-100,-100,-100,0,0,100,0.00,40.00,0,-999,0,0.00
2013-9-21,63,53,44,-100,-100,-100,0,0,100,0.00,40.00,0,-999,0,0.00
2013-9-22,51,46,37,-100,-100,-100,0,0,100,0.00,40.00,0,-999,0,0.04
2013-9-23,57,44,37,-100,-100,-100,0,0,100,0.00,40.00,0,-999,0,0.04
2013-9-24,66,47,33,-100,-100,-100,0,0,100,0.00,40.00,0,-999,0,0.07
2013-9-25,62,50,38,-100,-100,-100,0,0,100,0.00,40.00,0,-999,0,0.06
2013-9-26,60,51,39,-100,-100,-100,0,0,100,0.00,40.00,0,-999,0,0.06
2013-9-27,51,39,30,-100,-100,-100,0,0,100,0.00,40.00,0,-999,0,0.08
2013-9-28,54,37,27,-100,-100,-100,0,0,100,0.00,40.00,0,-999,0,0.09
2013-9-30,64,51,37,-100,-100,-100,0,0,100,0.00,40.00,0,-999,0,0.06
2013-10-1,61,49,42,-100,-100,-100,0,0,100,0.00,40.00,0,-999,0,0.00
2013-10-2,63,53,36,-100,-100,-100,0,0,100,0.00,40.00,0,-999,0,0.01
2013-10-3,58,49,37,-100,-100,-100,0,0,100,0.00,40.00,0,-999,0,0.00
2013-10-4,48,40,27,-100,-100,-100,0,0,100,0.00,40.00,0,-999,0,0.00
2013-10-5,53,41,29,-100,-100,-100,0,0,100,0.00,40.00,0,-999,0,0.01
2013-10-6,61,44,30,-100,-100,-100,0,0,100,0.00,40.00,0,-999,0,0.01
2013-10-7,64,46,35,-100,-100,-100,0,0,100,0.00,40.00,0,-999,0,0.01
2013-10-8,59,47,36,-100,-100,-100,0,0,100,0.00,40.00,0,-999,0,0.00
2013-10-9,54,46,35,-100,-100,-100,0,0,100,0.00,40.00,0,-999,0,0.00
2013-10-10,43,38,33,-100,-100,-100,0,0,100,0.00,40.00,0,-999,0,0.03
2013-10-11,38,34,28,-100,-100,-100,0,0,100,0.00,40.00,0,-999,0,0.03
2013-10-12,52,36,25,-100,-100,-100,0,0,100,0.00,40.00,0,-999,0,0.01
2013-10-13,52,43,35,-100,-100,-100,0,0,100,0.00,40.00,0,-999,0,0.01
2013-10-21,46,37,32,-100,-100,-100,0,0,100,0.00,40.00,0,-999,0,0.01
2013-10-22,59,43,32,-100,-100,-100,0,0,100,0.00,40.00,0,-999,0,0.01
2013-10-23,48,38,32,-100,-100,-100,0,0,100,0.00,40.00,0,-999,0,0.00
2013-10-24,60,53,46,-100,-100,-100,0,0,100,0.00,40.00,0,-999,0,0.00
2013-10-25,41,39,36,-100,-100,-100,0,0,100,0.00,40.00,0,-999,0,0.01
2013-10-26,47,41,35,-100,-100,-100,0,0,100,0.00,40.00,0,-999,0,0.00
2013-10-27,49,42,34,-100,-100,-100,0,0,100,0.00,40.00,0,-999,0,0.00
2013-11-2,54,44,26,-100,-100,-100,0,0,100,0.00,40.00,0,-999,0,0.00
2013-11-3,42,36,31,-100,-100,-100,0,0,100,0.00,40.00,0,-999,0,0.02
2013-11-4,42,35,26,-100,-100,-100,0,0,100,0.00,40.00,0,-999,0,0.02
2013-11-5,37,29,18,-100,-100,-100,0,0,100,0.00,40.00,0,-999,0,0.00
2013-11-6,40,29,18,-100,-100,-100,0,0,100,0.00,40.00,0,-999,0,0.00
2013-11-7,30,28,26,-100,-100,-100,0,0,100,0.00,40.00,0,-999,0,0.00
2013-11-8,49,37,29,-100,-100,-100,0,0,100,0.00,40.00,0,-999,0,0.02
2013-11-12,60,43,34,-100,-100,-100,0,0,100,0.00,40.00,0,-999,0,0.01
2013-11-13,47,43,33,-100,-100,-100,0,0,100,0.00,40.00,0,-999,0,0.00
2013-11-14,45,37,30,-100,-100,-100,0,0,100,0.00,40.00,0,-999,0,0.00
2013-11-15,34,34,34,-100,-100,-100,0,0,100,0.00,40.00,0,-999,0,0.00
2013-11-16,41,34,30,-100,-100,-100,0,0,100,0.00,40.00,0,-999,0,0.04
2013-11-17,47,47,47,-100,-100,-100,0,0,100,0.00,40.00,0,-999,0,0.00
2013-11-18,49,28,19,-100,-100,-100,0,0,100,0.00,40.00,0,-999,0,0.00
2013-11-19,44,36,26,-100,-100,-100,0,0,100,0.00,40.00,0,-999,0,0.02
2013-11-20,69,37,29,-100,-100,-100,0,0,100,0.00,40.00,0,-999,0,0.03
2013-11-21,69,47,33,-100,-100,-100,0,0,100,0.00,40.00,0,-999,0,0.05
2013-11-22,34,34,33,-100,-100,-100,0,0,100,0.00,40.00,0,-999,0,0.00
2013-11-23,66,38,31,-100,-100,-100,0,0,100,0.00,40.00,0,-999,0,0.07
2013-11-24,33,28,21,-100,-100,-100,0,0,100,0.00,40.00,0,-999,0,0.02
2013-11-25,65,37,19,-100,-100,-100,0,0,100,0.00,40.00,0,-999,0,0.00
2013-11-26,31,25,19,-100,-100,-100,0,0,100,0.00,40.00,0,-999,0,0.02
2013-11-27,37,28,18,-100,-100,-100,0,0,100,0.00,40.00,0,-999,0,0.00
2013-11-28,49,31,22,-100,-100,-100,0,0,100,0.00,40.00,0,-999,0,0.02
2013-11-29,40,29,21,-100,-100,-100,0,0,100,0.00,40.00,0,-999,0,0.00
2013-11-30,47,32,23,-100,-100,-100,0,0,100,0.00,40.00,0,-999,0,0.03
2013-12-1,49,30,19,-100,-100,-100,0,0,100,0.00,40.00,0,-999,0,0.00
2013-12-2,49,41,33,-100,-100,-100,0,0,100,0.00,40.00,0,-999,0,0.00
2013-12-3,35,33,31,-100,-100,-100,0,0,100,0.00,40.00,0,-999,0,0.00
2013-12-4,31,26,13,-100,-100,-100,0,0,100,0.00,40.00,0,-999,0,0.05
2013-12-5,19,6,-4,-100,-100,-100,0,0,100,0.00,40.00,0,-999,0,0.04
2013-12-6,22,7,1,-100,-100,-100,0,0,100,0.00,40.00,0,-999,0,0.00
2013-12-7,19,16,10,-100,-100,-100,0,0,100,0.00,40.00,0,-999,0,0.00
2013-12-8,19,10,-2,-100,-100,-100,0,0,100,0.00,40.00,0,-999,0,0.02
2013-12-9,18,3,-9,-100,-100,-100,0,0,100,0.00,40.00,0,-999,0,0.04
2013-12-10,35,20,1,-100,-100,-100,0,0,100,0.00,40.00,0,-999,0,0.01
2013-12-11,35,21,11,-100,-100,-100,0,0,100,0.00,40.00,0,-999,0,0.01
2013-12-12,46,23,15,-100,-100,-100,0,0,100,0.00,40.00,0,-999,0,0.00
2013-12-13,45,31,19,-100,-100,-100,0,0,100,0.00,40.00,0,-999,0,0.00
2013-12-14,31,25,18,-100,-100,-100,0,0,100,0.00,40.00,0,-999,0,0.00
2013-12-15,36,34,31,-100,-100,-100,0,0,100,0.00,40.00,0,-999,0,0.00
2013-12-16,54,37,29,-100,-100,-100,0,0,100,0.00,40.00,0,-999,0,0.01
2013-12-17,35,30,25,-100,-100,-100,0,0,100,0.00,40.00,0,-999,0,0.00
2013-12-18,49,36,29,-100,-100,-100,0,0,100,0.00,40.00,0,-999,0,0.00
2013-12-19,41,34,30,-100,-100,-100,0,0,100,0.00,40.00,0,-999,0,0.01
2013-12-20,30,30,29,-100,-100,-100,0,0,100,0.00,40.00,0,-999,0,0.00
2013-12-21,29,20,13,-100,-100,-100,0,0,100,0.00,40.00,0,-999,0,0.00
2013-12-22,34,22,12,-100,-100,-100,0,0,100,0.00,40.00,0,-999,0,0.01
2013-12-23,33,22,16,-100,-100,-100,0,0,100,0.00,40.00,0,-999,0,0.00
2013-12-24,43,29,20,-100,-100,-100,0,0,100,0.00,40.00,0,-999,0,0.00
2013-12-25,43,28,18,-100,-100,-100,0,0,100,0.00,40.00,0,-999,0,0.00
2013-12-26,49,32,22,-100,-100,-100,0,0,100,0.00,40.00,0,-999,0,0.02
2013-12-27,45,34,25,-100,-100,-100,0,0,100,0.00,40.00,0,-999,0,0.00
2013-12-28,36,27,23,-100,-100,-100,0,0,100,0.00,40.00,0,-999,0,0.00
2013-12-29,42,30,23,-100,-100,-100,0,0,100,0.00,40.00,0,-999,0,0.00
2013-12-30,34,28,24,-100,-100,-100,0,0,100,0.00,40.00,0,-999,0,0.00
2013-12-31,37,28,21,-100,-100,-100,0,0,100,0.00,40.00,0,-999,0,0.01
2014-1-1,43,34,28,-100,-100,-100,0,0,100,0.00,40.00,0,-999,0,0.00
2014-1-2,46,28,22,-100,-100,-100,0,0,100,0.00,40.00,0,-999,0,0.00